STARLINK-4083, 52832

Orbit data source: Space-Track

STARLINK-4083, 52832 is a payload satellite owned by SpaceX/Seattle (US) in LEO that was launched on Fri, 17 Jun 2022 UTC via an FALCON 9 launch vehicle from the Air Force Eastern Test Range (AFETR). Payload-class satellites include a variety of spacecraft equipped with specific instruments for various scientific and technological missions. These include communications satellites like Starlink; space stations such as the ISS; scientific satellites like the Hubble; Earth observation satellites from companies like Planet Labs, Umbra, and HawkEye 360; GPS; miniature CubeSats for education and research; and military/defense satellites.

Loading next visibility...
Identifier
52832, 2022-062C
Orbit
LEO
Country
Flag of USUS
Related business
Manufacturer
SpaceX/Seattle
Mission
Operational Commercial Communications
Bus & Motor
STARLINK, Unknown motor
Mass
297 kg wet, ~275 kg dry
Launch date (UTC)
2022-06-17 (3 years ago)
Launch vehicle
FALCON 9
Launch site
Air Force Eastern Test Range (AFETR)
Object type
Payload
Rocket body
Debris
Shape & HBR
Box + 1 Pan, 10.1 m
Radar Cross Section
13.562 m², Large (>1 m²)

Expand to show TLE details & history
Last TLE update: 1 day ago

TLE from 1 day ago
0 STARLINK-4083
1 52832U 22062C   25348.58746377  .00001106  00000-0  87565-4 0  9994
2 52832  53.2170  56.1617 0001353  94.4805 265.6342 15.08837123192938
Epoch: 2025-12-14T14:05Z
TLE epoch observation values (Epoch: 2025-12-14T14:05:56.869Z)
Latitude
-0.00001°
Longitude
121.1765°
Altitude
540.721 km
Speed
7.593 km/s
True Right ascension
03h 44m 38s
True Declination
0° 00' 00"
Sunlit
Object was in full shadow at epoch
Visualization orbit readout
Latitude
Unknown
Longitude
Unknown
Altitude
Unknown
Speed
Unknown
Apparent Right ascension
Unknown
Apparent Declination
Unknown
Sunlit
N/A
Visualization observer readout
Local Sidereal Time
13:18:47
Azimuth
Unknown
Elevation
Unknown
Doppler factor
Unknown
Orbital elements
Apogee altitude
540.933 km
Perigee altitude
539.061 km
Semi-major axis
6,918.134 km
Eccentricity
0.00014
Inclination
53.217°
RAAN
56.1617°
Arg. of periapsis
94.4805°
True anomaly
265.61874°
Mean anomaly
265.6342°
Eccentric anomaly
265.62647°
Mean motion
3.7719 °/min
Orbital period
95.44 mins
BSTAR
0.000087565
Loading maneuver chart data...
Computing Atmospheric mass density...
Loading historical data...
Loading historical data...
Loading historical data...
Loading historical data...
Loading historical data...
Loading historical data...
Loading historical data...

Documentation

Showing up to 5 results
|